GW0758 Weather Reports


time (UTC)temp
C
wind
direction
speed
KPH
gust
KPH
rain 1hr
cm
rain 24hr
cm
rain mn
cm
humidity
%
barometer
mb
20260505200049 15 234 8.0 24.1 0.00 0.53 0.38 77 1017.4
20260505194559 15 285 12.9 20.9 0.00 0.53 0.38 77 1017.4
20260505193046 15 292 6.4 22.5 0.00 0.53 0.38 78 1017.5
20260505191547 15 310 12.9 22.5 0.00 0.53 0.38 77 1017.4
20260505190048 15 265 8.0 22.5 0.00 0.53 0.38 77 1017.4
20260505184543 14 311 9.7 22.5 0.00 0.53 0.38 80 1017.3
20260505183051 14 296 11.3 20.9 0.00 0.53 0.38 83 1017.3
20260505181545 13 302 11.3 20.9 0.00 0.53 0.38 82 1017.3
20260505180045 13 265 12.9 25.7 0.00 0.53 0.38 84 1017.2
20260505174543 13 303 16.1 25.7 0.00 0.53 0.38 85 1017.1
20260505173049 13 228 9.7 22.5 0.00 0.53 0.38 87 1016.8
20260505171547 12 279 4.8 20.9 0.00 0.53 0.38 90 1016.9
20260505170046 12 271 6.4 12.9 0.00 0.53 0.38 92 1016.9
20260505164555 12 304 9.7 17.7 0.00 0.53 0.38 93 1016.9
20260505163050 12 325 3.2 11.3 0.00 0.53 0.38 94 1016.8
20260505161556 12 9 1.6 14.5 0.00 0.53 0.38 93 1016.9
20260505153122 12 317 14.5 25.7 0.00 0.53 0.38 92 1016.5
20260505151545 12 299 11.3 19.3 0.00 0.53 0.38 91 1016.3
20260505124547 11 292 3.2 12.9 0.00 0.53 0.38 92 1015.6
20260505123052 11 0 1.6 4.8 0.00 0.53 0.38 93 1015.8
20260505121542 11 0 0.0 4.8 0.00 0.53 0.38 93 1015.9
20260505120049 11 0 0.0 6.4 0.00 0.53 0.38 93 1015.9
20260505114538 11 292 1.6 11.3 0.03 0.53 0.38 93 1015.8
20260505113043 11 157 1.6 8.0 0.03 0.53 0.38 93 1015.7
20260505111543 11 137 3.2 4.8 0.03 0.53 0.38 93 1016.0
20260505101542 11 124 3.2 8.0 0.00 0.51 0.36 93 1015.9
20260505100045 11 76 1.6 4.8 0.03 0.51 0.36 93 1016.0
20260505094541 11 93 1.6 6.4 0.03 0.51 0.36 93 1016.1
20260505093045 11 0 0.0 4.8 0.03 0.51 0.36 93 1016.3
20260505091541 11 0 0.0 6.4 0.10 0.51 0.36 93 1016.3
20260505090043 11 153 0.0 6.4 0.15 0.48 0.33 92 1016.5
20260505084547 11 115 1.6 4.8 0.18 0.48 0.33 92 1016.7
20260505083050 11 137 1.6 6.4 0.23 0.48 0.33 92 1016.6
20260505081548 10 158 1.6 6.4 0.18 0.41 0.25 92 1016.6
20260505080040 10 178 0.0 4.8 0.15 0.33 0.18 91 1016.6
20260505074541 10 287 1.6 6.4 0.15 0.30 0.15 91 1016.8
20260505073046 11 257 3.2 6.4 0.10 0.25 0.10 91 1016.7
20260505071544 11 334 1.6 6.4 0.08 0.20 0.05 91 1017.0
20260505070046 11 38 1.6 6.4 0.05 0.15 0.00 91 1017.2
20260505064557 11 309 6.4 16.1 0.08 0.15 0.15 90 1016.7
20260505063049 11 292 6.4 20.9 0.08 0.15 0.15 90 1016.5
20260505061539 11 341 11.3 27.4 0.05 0.13 0.13 90 1016.3
20260505060049 11 348 11.3 22.5 0.05 0.10 0.10 90 1016.3
20260505054547 11 344 6.4 12.9 0.05 0.08 0.08 89 1016.5
20260505053107 11 335 4.8 14.5 0.08 0.08 0.08 89 1016.5
20260505051549 11 316 6.4 19.3 0.08 0.08 0.08 88 1016.6
20260505041549 13 338 14.5 24.1 0.00 0.00 0.00 81 1016.8
20260505040050 13 323 8.0 17.7 0.00 0.00 0.00 81 1016.5
20260505034610 13 341 8.0 17.7 0.00 0.00 0.00 80 1016.3
20260505033051 13 330 9.7 20.9 0.00 0.00 0.00 80 1016.1
20260505031542 13 309 9.7 19.3 0.00 0.00 0.00 79 1016.0
20260505030042 13 327 12.9 24.1 0.00 0.00 0.00 78 1015.9
20260505024548 13 311 12.9 29.0 0.00 0.00 0.00 77 1015.8
20260505023047 13 347 14.5 25.7 0.00 0.00 0.00 78 1015.9
20260505021538 13 316 12.9 25.7 0.00 0.00 0.00 79 1015.9
20260505020043 13 319 12.9 25.7 0.00 0.00 0.00 79 1015.9
20260505014544 14 270 14.5 27.4 0.00 0.00 0.00 77 1016.1
20260505013043 14 336 14.5 30.6 0.00 0.00 0.00 77 1016.2
20260505011602 14 321 14.5 24.1 0.00 0.00 0.00 77 1016.2
20260505010043 14 294 19.3 30.6 0.00 0.00 0.00 76 1016.3
20260505004547 15 305 9.7 32.2 0.00 0.00 0.00 75 1016.3
20260505003049 15 330 12.9 25.7 0.00 0.00 0.00 73 1016.3
20260505001547 15 289 16.1 33.8 0.00 0.00 0.00 72 1016.5
20260505000058 15 285 12.9 29.0 0.00 0.00 0.00 73 1016.4
20260504234541 15 292 17.7 32.2 0.00 0.00 0.00 69 1016.2
20260504233102 15 290 17.7 32.2 0.00 0.00 0.00 69 1016.2
20260504231539 15 250 16.1 32.2 0.00 0.00 0.00 68 1016.2
20260504230043 16 266 16.1 30.6 0.00 0.00 0.00 67 1016.3
20260504224544 16 271 11.3 29.0 0.00 0.00 0.00 66 1016.3
20260504223040 16 298 14.5 32.2 0.00 0.00 0.00 63 1016.4
20260504221539 16 305 17.7 30.6 0.00 0.00 0.00 65 1016.5
20260504220040 16 303 16.1 32.2 0.00 0.00 0.00 67 1016.7
20260504214546 16 269 14.5 38.6 0.00 0.00 0.00 67 1016.5
20260504213044 16 278 17.7 32.2 0.00 0.00 0.00 64 1016.6
20260504211542 17 285 14.5 33.8 0.00 0.00 0.00 62 1016.5
20260504210041 17 274 12.9 33.8 0.00 0.00 0.00 61 1016.7